Погода в Марьевке

Украина / Днепропетровская область     48°20′18″N   35°42′34″E
темп.,
°C
ветер,
м/с
пор.,
м/с
влажн.,
%
обл.,
%
осадки,
мм/ч
давл.,
гПа
погр.,
м
11 апреля, вс
вс1100:00+6ссв37595 0.0 1025110
03:00+5ссв47645 0.0 1026119
06:00+4ссв410675 0.0 1026188
09:00+9св7115079 0.0 1026763
12:00+13ссв8103795 0.0 10251207
15:00+15св8934100 0.0 10241395
18:00+13ссв71043100 0.0 1023949
21:00+10св61359100 0.0 1024537
12 апреля, пн
пн1200:00+9ссв61261100 0.0 1023474
03:00+9св61066100 0.0 1022478
06:00+8св4879100 0.0 1021294
09:00+11св5778100 0.0 1021435
12:00+16св5657100 0.0 1019839
15:00+18вюв474993 0.0 10181765
18:00+14юв3667100 0.0 1018338
21:00+11ю4785100 0.1 1021410
13 апреля, вт
вт1300:00+10ююв359098 0.0 1021177
03:00+10ююв3586100 0.0 1021274
06:00+8ююв349319 0.0 102179
09:00+11ююв3473100 0.0 1021480
12:00+15ююв455796 0.0 10211359
15:00+13юв5566100 0.0 1021771
18:00+14юв456186 0.0 10201004
21:00+12юв3771100 0.0 1021320
14 апреля, ср
ср1400:00+8ю358322 0.0 1020114
03:00+7ююз239297 0.0 102040
06:00+6юв2292100 0.0 101913
09:00+11ю237016 0.0 1018473
12:00+15ю345227 0.0 10171442
15:00+17ю454259 0.0 10162111
18:00+16ююз4649100 0.0 1016325
21:00+12ююз3666100 0.0 1016159
15 апреля, чт
чт1500:00+10ююз2378100 0.0 101661
03:00+9ююз228296 0.0 101629
06:00+8ю228685 0.0 101633
09:00+12юв236812 0.0 1015463
12:00+16юв334660 0.0 10131367
15:00+17ююв4444100 0.0 10121996
18:00+12ю2574100 0.7 1012580
21:00+10ю4789100 1.6 1013464